• In Switzerland
  • List of Countries
  • For 7 days
  • Water Temperature
  • Satellite Maps
  • Weather Map
  • Weather Widgets
  • user-avatar
    Login

    Hourly Weather Borgarnes

    Today, 21 October, Sunday

    Time Temperature Precipitation Wind Pressure Humidity
    00:00 0°C° 0.8 mm 16 mps 738 mmHg 84%
    01:00 0°C° 0.8 mm 16 mps 739 mmHg 83%
    02:00 -2°C° 0.8 mm 16 mps 740 mmHg 83%
    03:00 -1°C° 0.7 mm 15 mps 741 mmHg 83%
    04:00 -2°C° 0.7 mm 14 mps 741 mmHg 83%
    05:00 -1°C° 0 mm 13 mps 742 mmHg 83%
    06:00 -1°C° 0.4 mm 12 mps 743 mmHg 84%
    07:00 -1°C° 0.4 mm 11 mps 743 mmHg 86%
    08:00 0°C° 0.4 mm 9 mps 744 mmHg 87%
    09:00 0°C° 0.3 mm 8 mps 745 mmHg 88%
    10:00 0°C° 0.3 mm 7 mps 746 mmHg 89%
    11:00 +1°C° 0 mm 5 mps 747 mmHg 89%
    12:00 +1°C° 0.1 mm 6 mps 747 mmHg 89%
    13:00 +1°C° 0.1 mm 6 mps 748 mmHg 89%
    14:00 0°C° 0.1 mm 7 mps 749 mmHg 88%
    15:00 0°C° 0.2 mm 7 mps 749 mmHg 87%
    16:00 0°C° 0.2 mm 8 mps 750 mmHg 86%
    17:00 0°C° 0.2 mm 8 mps 751 mmHg 85%
    18:00 0°C° 0.1 mm 9 mps 751 mmHg 83%
    19:00 -1°C° 0.1 mm 9 mps 752 mmHg 82%
    20:00 -1°C° 0.1 mm 9 mps 752 mmHg 80%
    21:00 -1°C° 0.1 mm 9 mps 753 mmHg 79%
    22:00 -1°C° 0.1 mm 9 mps 753 mmHg 78%
    23:00 0°C° 0.1 mm 9 mps 753 mmHg 77%

    Tomorrow, 22 October, Monday

    Time Temperature Precipitation Wind Pressure Humidity
    00:00 0°C° 0.1 mm 8 mps 752 mmHg 79%
    01:00 0°C° 0.1 mm 8 mps 752 mmHg 81%
    02:00 0°C° 0.1 mm 7 mps 751 mmHg 83%
    03:00 +1°C° 0.8 mm 6 mps 750 mmHg 86%
    04:00 +1°C° 0.8 mm 5 mps 750 mmHg 90%
    05:00 +1°C° 0.8 mm 4 mps 749 mmHg 94%
    06:00 +1°C° 0.7 mm 4 mps 749 mmHg 95%
    07:00 +3°C° 0.7 mm 4 mps 748 mmHg 96%
    08:00 +2°C° 0.7 mm 5 mps 748 mmHg 96%
    09:00 +2°C° 0.4 mm 5 mps 748 mmHg 97%
    10:00 +2°C° 0.4 mm 5 mps 749 mmHg 98%
    11:00 +3°C° 0.4 mm 5 mps 749 mmHg 98%
    12:00 +2°C° 0.2 mm 5 mps 749 mmHg 98%
    13:00 +3°C° 0.2 mm 4 mps 750 mmHg 97%
    14:00 +3°C° 0.2 mm 4 mps 750 mmHg 97%
    15:00 +2°C° 0 mm 5 mps 751 mmHg 96%
    16:00 +2°C° 0 mm 5 mps 751 mmHg 95%
    17:00 +2°C° 0 mm 5 mps 752 mmHg 94%
    18:00 +1°C° 0 mm 4 mps 752 mmHg 92%
    19:00 +1°C° 0 mm 4 mps 753 mmHg 91%
    20:00 +1°C° 0 mm 4 mps 754 mmHg 90%
    21:00 +1°C° 0 mm 3 mps 754 mmHg 89%
    22:00 +1°C° 0 mm 3 mps 755 mmHg 88%
    23:00 +1°C° 0 mm 2 mps 755 mmHg 87%

    Day after tomorrow, 23 October, Tuesday

    Time Temperature Precipitation Wind Pressure Humidity
    00:00 +1°C° 0 mm 2 mps 756 mmHg 86%
    01:00 +2°C° 0 mm 1 mps 756 mmHg 85%
    02:00 +3°C° 0 mm 1 mps 756 mmHg 85%
    03:00 +3°C° 0 mm 1 mps 757 mmHg 84%
    04:00 +3°C° 0 mm 1 mps 757 mmHg 84%
    05:00 +3°C° 0 mm 1 mps 757 mmHg 83%
    06:00 +3°C° 0 mm 1 mps 757 mmHg 83%
    07:00 +3°C° 0 mm 1 mps 757 mmHg 82%
    08:00 +3°C° 0 mm 1 mps 757 mmHg 81%
    09:00 +3°C° 0.1 mm 1 mps 757 mmHg 81%
    10:00 +3°C° 0.1 mm 1 mps 757 mmHg 81%
    11:00 +3°C° 0.1 mm 2 mps 757 mmHg 80%
    12:00 +3°C° 0 mm 2 mps 758 mmHg 81%
    13:00 +3°C° 0 mm 2 mps 758 mmHg 82%
    14:00 +3°C° 0 mm 2 mps 758 mmHg 83%
    15:00 +2°C° 0.3 mm 3 mps 758 mmHg 84%
    16:00 +2°C° 0.3 mm 3 mps 757 mmHg 85%
    17:00 +2°C° 0.3 mm 3 mps 757 mmHg 86%
    18:00 +1°C° 0.3 mm 4 mps 756 mmHg 88%
    19:00 +1°C° 0.3 mm 5 mps 756 mmHg 91%
    20:00 +1°C° 0.3 mm 5 mps 755 mmHg 93%
    21:00 +2°C° 1.1 mm 6 mps 754 mmHg 94%
    22:00 +2°C° 1.1 mm 7 mps 753 mmHg 96%
    23:00 +2°C° 1.1 mm 7 mps 752 mmHg 98%

    24 October, Wednesday

    Time Temperature Precipitation Wind Pressure Humidity
    00:00 +2°C° 1.4 mm 8 mps 751 mmHg 98%
    01:00 +4°C° 1.4 mm 8 mps 751 mmHg 98%
    02:00 +5°C° 1.4 mm 9 mps 751 mmHg 98%
    03:00 +3°C° 0.1 mm 9 mps 751 mmHg 97%
    04:00 +2°C° 0.1 mm 9 mps 751 mmHg 95%
    05:00 +2°C° 0.1 mm 9 mps 751 mmHg 94%
    06:00 +2°C° 0.4 mm 9 mps 751 mmHg 94%
    07:00 +2°C° 0.4 mm 9 mps 751 mmHg 94%
    08:00 +2°C° 0.4 mm 9 mps 751 mmHg 93%
    09:00 +2°C° 0.5 mm 9 mps 751 mmHg 93%
    10:00 +2°C° 0.5 mm 9 mps 751 mmHg 94%
    11:00 +2°C° 0.5 mm 9 mps 750 mmHg 94%
    12:00 +2°C° 0.3 mm 8 mps 750 mmHg 94%
    13:00 +3°C° 0.3 mm 7 mps 750 mmHg 94%
    14:00 +3°C° 0.3 mm 6 mps 750 mmHg 95%
    15:00 +3°C° 0.2 mm 5 mps 750 mmHg 96%
    16:00 +4°C° 0.2 mm 4 mps 751 mmHg 96%
    17:00 +3°C° 0.2 mm 3 mps 751 mmHg 97%
    18:00 +3°C° 0.1 mm 3 mps 752 mmHg 96%
    19:00 +3°C° 0.1 mm 4 mps 753 mmHg 94%
    20:00 +1°C° 0.1 mm 5 mps 754 mmHg 93%
    21:00 +1°C° 0.2 mm 6 mps 754 mmHg 92%
    22:00 0°C° 0.2 mm 7 mps 754 mmHg 90%
    23:00 -1°C° 0.2 mm 8 mps 755 mmHg 89%

    25 October, Thursday

    Time Temperature Precipitation Wind Pressure Humidity
    00:00 -1°C° 0.2 mm 8 mps 755 mmHg 88%
    01:00 -2°C° 0.2 mm 8 mps 756 mmHg 88%
    02:00 -2°C° 0.2 mm 8 mps 756 mmHg 87%
    03:00 -2°C° 0.1 mm 8 mps 757 mmHg 87%
    04:00 -2°C° 0.1 mm 8 mps 757 mmHg 88%
    05:00 -2°C° 0.1 mm 8 mps 758 mmHg 88%
    06:00 -2°C° 0.1 mm 8 mps 759 mmHg 88%
    07:00 -2°C° 0.1 mm 8 mps 760 mmHg 87%
    08:00 -4°C° 0.1 mm 9 mps 761 mmHg 87%
    09:00 -4°C° 0 mm 9 mps 762 mmHg 85%
    10:00 -4°C° 0 mm 8 mps 762 mmHg 83%
    11:00 -4°C° 0 mm 8 mps 763 mmHg 81%
    12:00 -4°C° 0 mm 8 mps 764 mmHg 80%
    13:00 -3°C° 0 mm 7 mps 765 mmHg 79%
    14:00 -4°C° 0 mm 7 mps 766 mmHg 78%
    15:00 -4°C° 0 mm 6 mps 766 mmHg 79%
    16:00 -5°C° 0 mm 6 mps 767 mmHg 80%
    17:00 -5°C° 0 mm 6 mps 768 mmHg 81%
    18:00 -5°C° 0 mm 6 mps 768 mmHg 81%
    19:00 -5°C° 0 mm 6 mps 769 mmHg 81%
    20:00 -6°C° 0 mm 6 mps 769 mmHg 81%
    21:00 -6°C° 0 mm 6 mps 770 mmHg 81%
    22:00 -6°C° 0 mm 6 mps 771 mmHg 81%
    23:00 -6°C° 0 mm 6 mps 771 mmHg 81%

    26 October, Friday

    Time Temperature Precipitation Wind Pressure Humidity
    00:00 -6°C° 0 mm 6 mps 772 mmHg 80%
    01:00 -6°C° 0 mm 6 mps 772 mmHg 79%
    02:00 -6°C° 0 mm 6 mps 772 mmHg 78%
    03:00 -6°C° 0 mm 5 mps 773 mmHg 77%
    04:00 -7°C° 0 mm 5 mps 774 mmHg 76%
    05:00 -7°C° 0 mm 5 mps 774 mmHg 75%
    06:00 -7°C° 0 mm 5 mps 775 mmHg 76%
    07:00 -7°C° 0 mm 4 mps 776 mmHg 76%
    08:00 -7°C° 0 mm 4 mps 776 mmHg 76%
    09:00 -7°C° 0 mm 4 mps 777 mmHg 75%
    10:00 -5°C° 0 mm 4 mps 777 mmHg 73%
    11:00 -6°C° 0 mm 5 mps 778 mmHg 72%
    12:00 -6°C° 0 mm 5 mps 778 mmHg 71%
    13:00 -6°C° 0 mm 5 mps 779 mmHg 70%
    14:00 -6°C° 0 mm 5 mps 779 mmHg 70%
    15:00 -6°C° 0 mm 5 mps 780 mmHg 71%
    16:00 -5°C° 0 mm 4 mps 780 mmHg 73%
    17:00 -7°C° 0 mm 4 mps 781 mmHg 75%
    18:00 -7°C° 0 mm 4 mps 781 mmHg 76%
    19:00 -7°C° 0 mm 4 mps 781 mmHg 77%
    20:00 -7°C° 0 mm 4 mps 782 mmHg 77%
    21:00 -7°C° 0 mm 4 mps 782 mmHg 77%
    22:00 -8°C° 0 mm 4 mps 782 mmHg 77%
    23:00 -8°C° 0 mm 4 mps 782 mmHg 77%
    Show more